Casa Grande, AZ

10:44 PM MST on November 16, 2019 (GMT -0700)
Casa Grande Municipal

Weather History for KCGZ - September, 2019

Change the Weather History Date:

Saturday, September 7, 2019

  Actual Average Record
Temperature  
Mean Temperature 93 °F -  
Max Temperature 102 °F 97 °F 105 °F (2000)
Min Temperature 84 °F 71 °F 66 °F (1996)
Cooling Degree Days 28    
Growing Degree Days 43 (Base 50)    
Moisture  
Dew Point 62 °F    
Average Humidity 38    
Maximum Humidity 55    
Minimum Humidity 21    
Precipitation  
Precipitation 0.00 in - - ()
Sea Level Pressure  
Sea Level Pressure 29.82 in    
Wind  
Wind Speed 6 mph ()    
Max Wind Speed 15 mph    
Max Gust Speed 20 mph    
Visibility 10.0 miles    
Events      
Averages and records for this station are not official NWS values.
T = Trace of Precipitation, MM = Missing Value Source: Averaged Metar Reports

Daily Weather History Graph

Daily Weather History Graph

Search for Another Location

Airport or City:

Astronomy

Sep. 07, 2019 Rise Set
Actual Time 6:05 AM MST 6:44 PM MST
Civil Twilight 5:40 AM MST 7:09 PM MST
Nautical Twilight 5:11 AM MST 7:38 PM MST
Astronomical Twilight 4:40 AM MST 8:08 PM MST
Moon 2:48 PM MST (9/7) 12:14 AM MST (9/7)
Length of Visible Light 13h 28m
Length of Day
12h 38m
Waxing Gibbous, 67% of the Moon is Illuminated
Sep 7
Waxing Gibbous
Sep 13
Full
Sep 21
Last Quarter
Sep 28
New
Oct 5
First Quarter

Hourly Weather History & Observations

Time (MST) Temp. Heat Index Dew Point Humidity Pressure Visibility Wind Dir Wind Speed Gust Speed Precip Events Conditions
12:56 AM 90.0 °F 88.6 °F 57.0 °F 33% 29.86 in 10.0 mi West 6.9 mph - N/A   Clear
1:56 AM 87.1 °F 86.5 °F 59.0 °F 39% 29.85 in 10.0 mi South 4.6 mph - N/A   Clear
2:56 AM 86.0 °F 85.7 °F 60.1 °F 41% 29.85 in 10.0 mi South 5.8 mph - N/A   Clear
3:56 AM 84.9 °F 87.1 °F 66.0 °F 53% 29.85 in 10.0 mi Calm Calm - N/A   Clear
4:56 AM 84.9 °F 87.6 °F 66.9 °F 55% 29.86 in 10.0 mi South 3.5 mph - N/A   Clear
5:56 AM 84.9 °F 87.6 °F 66.9 °F 55% 29.86 in 10.0 mi Calm Calm - N/A   Clear
6:56 AM 86.0 °F 88.8 °F 66.9 °F 53% 29.88 in 10.0 mi South 3.5 mph - N/A   Clear
7:56 AM 87.1 °F 89.9 °F 66.9 °F 51% 29.89 in 10.0 mi SSW 5.8 mph - N/A   Clear
8:56 AM 89.1 °F 92.1 °F 66.9 °F 48% 29.90 in 10.0 mi SSW 10.4 mph - N/A   Clear
9:56 AM 91.0 °F 93.0 °F 64.9 °F 42% 29.90 in 10.0 mi SSW 8.1 mph - N/A   Clear
10:56 AM 93.0 °F 94.6 °F 64.0 °F 38% 29.89 in 10.0 mi SSW 8.1 mph - N/A   Clear
11:56 AM 95.0 °F 97.0 °F 64.0 °F 36% 29.87 in 10.0 mi Variable 4.6 mph - N/A   Clear
12:56 PM 96.1 °F 98.3 °F 64.0 °F 35% 29.85 in 10.0 mi SSE 9.2 mph - N/A   Clear
1:56 PM 98.1 °F 100.7 °F 64.0 °F 33% 29.81 in 10.0 mi SSW 10.4 mph - N/A   Clear
2:56 PM 100.9 °F 103.3 °F 63.0 °F 29% 29.77 in 10.0 mi SSW 9.2 mph - N/A   Clear
3:56 PM 102.0 °F 104.6 °F 63.0 °F 28% 29.74 in 10.0 mi SSW 9.2 mph - N/A   Clear
4:56 PM 102.9 °F 103.0 °F 57.9 °F 23% 29.74 in 10.0 mi West 15.0 mph 18.4 mph N/A   Clear
5:56 PM 102.9 °F 101.9 °F 55.9 °F 21% 29.74 in 10.0 mi WNW 12.7 mph 19.6 mph N/A   Clear
6:56 PM 99.0 °F 98.1 °F 57.0 °F 25% 29.75 in 10.0 mi West 11.5 mph - N/A   Clear
7:56 PM 97.0 °F 95.3 °F 55.9 °F 25% 29.76 in 10.0 mi West 6.9 mph - N/A   Clear
8:56 PM 95.0 °F 93.0 °F 55.0 °F 26% 29.77 in 10.0 mi West 6.9 mph - N/A   Clear
9:56 PM 90.0 °F 88.6 °F 57.0 °F 33% 29.79 in 10.0 mi SW 4.6 mph - N/A   Clear
10:56 PM 90.0 °F 90.0 °F 61.0 °F 38% 29.79 in 10.0 mi South 5.8 mph - N/A   Clear
11:56 PM 90.0 °F 91.7 °F 64.9 °F 43% 29.80 in 10.0 mi East 4.6 mph - N/A   Mostly Cloudy